Location: Eaton Estates
(41.3089°N, 82.0057°W)
Time: 13:23:33
(UTC+00:00)

Cosmos 1943 - Pass Details

Date: 17 June 2021
Orbit: 831 x 852 km, 71.0° (Epoch: 30 July)

Event Time Altitude Azimuth Distance (km) Brightness Sun altitude
Exits shadow 07:23:41 37° 228° (SW) 1,273 3.6 -20.1°
Maximum altitude 07:25:51 65° 296° (WNW) 916 3.3 -19.9°
Drops below altitude 10° 07:31:28 10° 18° (NNE) 2,461 6.8 -19.3°
Sets 07:33:57 0° 22° (NNE) 3,402 7.9 -19.1°
